When you browse on this site, cookies collect data to enhance your experience and personalize the content and advertising you see.
Visit our Privacy Policy to learn more. By continuing to use the site, you agree to this use of cookies and data.
  • In Romania
  • List of Countries
  • For 7 days
  • Water Temperature
  • Satellite Maps
  • Weather Map
  • Weather Widgets
  • user-avatar
    Login

    Hourly Weather Newcastle

    Today, 19 May, Sunday

    Time Temperature Precipitation Wind Pressure Humidity
    00:00 +14°C° 0 mm 2 mps 771 mmHg 95%
    01:00 +14°C° 0 mm 2 mps 771 mmHg 95%
    02:00 +14°C° 0 mm 2 mps 771 mmHg 95%
    03:00 +14°C° 0 mm 2 mps 771 mmHg 96%
    04:00 +14°C° 0 mm 2 mps 771 mmHg 96%
    05:00 +14°C° 0 mm 2 mps 771 mmHg 96%
    06:00 +14°C° 0 mm 2 mps 771 mmHg 97%
    07:00 +14°C° 0 mm 2 mps 772 mmHg 97%
    08:00 +16°C° 0.1 mm 2 mps 772 mmHg 89%
    09:00 +19°C° 0.1 mm 2 mps 772 mmHg 80%
    10:00 +23°C° 0 mm 2 mps 772 mmHg 68%
    11:00 +24°C° 0.1 mm 2 mps 771 mmHg 63%
    12:00 +24°C° 0.1 mm 1 mps 771 mmHg 58%
    13:00 +25°C° 0.1 mm 1 mps 770 mmHg 54%
    14:00 +24°C° 0 mm 1 mps 770 mmHg 57%
    15:00 +24°C° 0 mm 2 mps 770 mmHg 61%
    16:00 +22°C° 0 mm 1 mps 770 mmHg 71%
    17:00 +21°C° 0 mm 1 mps 770 mmHg 77%
    18:00 +18°C° 0 mm 2 mps 770 mmHg 82%
    19:00 +17°C° 0 mm 2 mps 770 mmHg 87%
    20:00 +16°C° 0 mm 2 mps 770 mmHg 88%
    21:00 +16°C° 0 mm 2 mps 771 mmHg 88%
    22:00 +15°C° 0 mm 2 mps 771 mmHg 92%
    23:00 +14°C° 0 mm 2 mps 770 mmHg 93%

    Tomorrow, 20 May, Monday

    Time Temperature Precipitation Wind Pressure Humidity
    00:00 +14°C° 0 mm 2 mps 770 mmHg 93%
    01:00 +14°C° 0 mm 2 mps 770 mmHg 93%
    02:00 +14°C° 0 mm 2 mps 770 mmHg 93%
    03:00 +14°C° 0 mm 2 mps 770 mmHg 93%
    04:00 +13°C° 0 mm 2 mps 770 mmHg 92%
    05:00 +13°C° 0 mm 2 mps 770 mmHg 92%
    06:00 +13°C° 0 mm 2 mps 770 mmHg 92%
    07:00 +13°C° 0 mm 2 mps 770 mmHg 92%
    08:00 +15°C° 0 mm 2 mps 770 mmHg 82%
    09:00 +18°C° 0 mm 2 mps 770 mmHg 72%
    10:00 +20°C° 0 mm 2 mps 770 mmHg 61%
    11:00 +21°C° 0 mm 2 mps 769 mmHg 56%
    12:00 +24°C° 0 mm 2 mps 768 mmHg 51%
    13:00 +25°C° 0 mm 2 mps 768 mmHg 46%
    14:00 +24°C° 0 mm 2 mps 767 mmHg 50%
    15:00 +24°C° 0 mm 2 mps 767 mmHg 53%
    16:00 +23°C° 0 mm 2 mps 767 mmHg 56%
    17:00 +21°C° 0 mm 3 mps 767 mmHg 60%
    18:00 +19°C° 0 mm 3 mps 767 mmHg 65%
    19:00 +18°C° 0 mm 4 mps 768 mmHg 69%
    20:00 +17°C° 0 mm 4 mps 768 mmHg 72%
    21:00 +16°C° 0 mm 3 mps 768 mmHg 75%
    22:00 +16°C° 0 mm 3 mps 768 mmHg 79%
    23:00 +14°C° 0 mm 3 mps 768 mmHg 77%

    Day after tomorrow, 21 May, Tuesday

    Time Temperature Precipitation Wind Pressure Humidity
    00:00 +14°C° 0 mm 3 mps 768 mmHg 76%
    01:00 +14°C° 0 mm 3 mps 768 mmHg 75%
    02:00 +14°C° 0 mm 3 mps 768 mmHg 74%
    03:00 +14°C° 0 mm 3 mps 767 mmHg 74%
    04:00 +14°C° 0 mm 3 mps 767 mmHg 73%
    05:00 +14°C° 0 mm 3 mps 767 mmHg 73%
    06:00 +14°C° 0 mm 3 mps 768 mmHg 74%
    07:00 +14°C° 0 mm 3 mps 768 mmHg 74%
    08:00 +17°C° 0 mm 3 mps 768 mmHg 68%
    09:00 +19°C° 0 mm 3 mps 768 mmHg 62%
    10:00 +22°C° 0 mm 3 mps 768 mmHg 56%
    11:00 +24°C° 0 mm 3 mps 768 mmHg 50%
    12:00 +26°C° 0 mm 2 mps 767 mmHg 45%
    13:00 +28°C° 0 mm 1 mps 767 mmHg 40%
    14:00 +27°C° 0 mm 1 mps 767 mmHg 44%
    15:00 +26°C° 0 mm 1 mps 767 mmHg 48%
    16:00 +25°C° 0 mm 1 mps 767 mmHg 52%
    17:00 +23°C° 0 mm 2 mps 767 mmHg 56%
    18:00 +21°C° 0 mm 2 mps 767 mmHg 60%
    19:00 +19°C° 0 mm 2 mps 768 mmHg 64%
    20:00 +19°C° 0 mm 3 mps 768 mmHg 63%
    21:00 +19°C° 0 mm 3 mps 768 mmHg 63%
    22:00 +18°C° 0 mm 3 mps 769 mmHg 63%
    23:00 +18°C° 0 mm 3 mps 769 mmHg 64%

    22 May, Wednesday

    Time Temperature Precipitation Wind Pressure Humidity
    00:00 +17°C° 0 mm 3 mps 768 mmHg 66%
    01:00 +17°C° 0 mm 3 mps 768 mmHg 68%
    02:00 +16°C° 0 mm 3 mps 768 mmHg 69%
    03:00 +16°C° 0 mm 3 mps 768 mmHg 70%
    04:00 +16°C° 0 mm 3 mps 768 mmHg 70%
    05:00 +16°C° 0 mm 3 mps 769 mmHg 71%
    06:00 +16°C° 0 mm 3 mps 769 mmHg 72%
    07:00 +14°C° 0 mm 3 mps 769 mmHg 73%
    08:00 +18°C° 0 mm 3 mps 770 mmHg 66%
    09:00 +20°C° 0 mm 2 mps 770 mmHg 60%
    10:00 +23°C° 0 mm 2 mps 770 mmHg 53%
    11:00 +25°C° 0 mm 2 mps 769 mmHg 50%
    12:00 +26°C° 0 mm 2 mps 769 mmHg 46%
    13:00 +27°C° 0 mm 1 mps 768 mmHg 43%
    14:00 +26°C° 0 mm 2 mps 768 mmHg 49%
    15:00 +25°C° 0 mm 3 mps 768 mmHg 56%
    16:00 +24°C° 0 mm 3 mps 768 mmHg 62%
    17:00 +21°C° 0 mm 3 mps 769 mmHg 73%
    18:00 +19°C° 0 mm 2 mps 769 mmHg 84%
    19:00 +18°C° 0 mm 2 mps 770 mmHg 94%
    20:00 +17°C° 0.2 mm 2 mps 770 mmHg 95%
    21:00 +17°C° 0.2 mm 2 mps 770 mmHg 95%
    22:00 +18°C° 0.2 mm 1 mps 770 mmHg 95%
    23:00 +16°C° 0.4 mm 2 mps 770 mmHg 95%

    23 May, Thursday

    Time Temperature Precipitation Wind Pressure Humidity
    00:00 +16°C° 0.4 mm 2 mps 770 mmHg 95%
    01:00 +16°C° 0.4 mm 2 mps 770 mmHg 95%
    02:00 +16°C° 0.3 mm 2 mps 770 mmHg 96%
    03:00 +16°C° 0.3 mm 3 mps 770 mmHg 96%
    04:00 +16°C° 0.3 mm 3 mps 770 mmHg 97%
    05:00 +16°C° 0.3 mm 3 mps 770 mmHg 97%
    06:00 +16°C° 0.3 mm 3 mps 770 mmHg 98%
    07:00 +16°C° 0.3 mm 3 mps 771 mmHg 98%
    08:00 +17°C° 0.4 mm 3 mps 771 mmHg 94%
    09:00 +18°C° 0.4 mm 3 mps 771 mmHg 90%
    10:00 +19°C° 0.4 mm 3 mps 771 mmHg 87%
    11:00 +20°C° 0.1 mm 3 mps 770 mmHg 79%
    12:00 +21°C° 0.1 mm 3 mps 770 mmHg 71%
    13:00 +24°C° 0.1 mm 3 mps 769 mmHg 64%
    14:00 +22°C° 0 mm 3 mps 769 mmHg 66%
    15:00 +22°C° 0 mm 3 mps 769 mmHg 68%
    16:00 +21°C° 0 mm 3 mps 768 mmHg 71%
    17:00 +20°C° 0 mm 2 mps 769 mmHg 78%
    18:00 +18°C° 0 mm 2 mps 769 mmHg 85%
    19:00 +17°C° 0 mm 2 mps 769 mmHg 93%
    20:00 +16°C° 0 mm 2 mps 770 mmHg 94%
    21:00 +16°C° 0 mm 2 mps 770 mmHg 95%
    22:00 +16°C° 0 mm 2 mps 770 mmHg 96%
    23:00 +15°C° 0 mm 2 mps 770 mmHg 97%

    24 May, Friday

    Time Temperature Precipitation Wind Pressure Humidity
    00:00 +15°C° 0 mm 2 mps 769 mmHg 97%
    01:00 +15°C° 0 mm 2 mps 769 mmHg 97%
    02:00 +14°C° 0 mm 2 mps 769 mmHg 97%
    03:00 +14°C° 0 mm 2 mps 769 mmHg 97%
    04:00 +14°C° 0 mm 2 mps 768 mmHg 96%
    05:00 +13°C° 0 mm 2 mps 769 mmHg 96%
    06:00 +13°C° 0 mm 2 mps 769 mmHg 96%
    07:00 +13°C° 0 mm 2 mps 769 mmHg 96%
    08:00 +15°C° 0 mm 2 mps 769 mmHg 86%
    09:00 +18°C° 0 mm 2 mps 769 mmHg 77%
    10:00 +20°C° 0 mm 2 mps 769 mmHg 67%
    11:00 +23°C° 0 mm 1 mps 768 mmHg 60%
    12:00 +24°C° 0 mm 1 mps 767 mmHg 54%
    13:00 +24°C° 0 mm 0 mps 767 mmHg 47%
    14:00 +25°C° 0 mm 1 mps 766 mmHg 51%
    15:00 +24°C° 0 mm 1 mps 766 mmHg 55%
    16:00 +23°C° 0 mm 2 mps 766 mmHg 58%
    17:00 +20°C° 0 mm 2 mps 766 mmHg 65%
    18:00 +18°C° 0 mm 2 mps 767 mmHg 71%
    19:00 +17°C° 0 mm 2 mps 767 mmHg 78%
    20:00 +16°C° 0 mm 3 mps 767 mmHg 78%
    21:00 +16°C° 0 mm 3 mps 767 mmHg 78%
    22:00 +14°C° 0 mm 3 mps 767 mmHg 78%
    23:00 +14°C° 0 mm 3 mps 767 mmHg 76%
    Show more